Skip to main content

CRUISE INFORMATION RECORD AND DATA
 
NODC Cruise US-31263 Information
WOD CRUISE REFERENCE # US031263
DATA:
in WOD format US031263_XBT.dat
US031263_CTD.dat
in 'csv' format US031263_XBT.csv
US031263_CTD.csv
METADATA:
COUNTRY UNITED STATES (US)
NODC ACCESSION NUMBER (XBT) 65691
SHIP NAME POINT SUR
INSTITUTE US NAVY POSTGRADUATE SCHOOL (MONTEREY; CA)
DATE OF FIRST CAST 1/23/2008
DATE OF LAST CAST 1/30/2008
TOTAL NUMBER OF CASTS 78
Temperature [t] PROFILES 78
Salinity [s] PROFILES 52
Oxygen [o] PROFILES 52
Chlorophyll [c] PROFILES 52
Transmissiv [v] PROFILES 52
Pressure [w] PROFILES 52
UNIQUE CAST # LATITUDE LONGITUDE DATE TIME PROBE TYPE
13089212 36.782 -122.020 1/23/2008 12.456 XBT
13089213 36.705 -122.051 1/23/2008 14.338 XBT
13089219 36.635 -122.076 1/23/2008 15.876 XBT
13089214 36.650 -122.116 1/23/2008 18.953 XBT
13088900 36.782 -122.016 1/23/2008 20.349 CTD
13088901 36.782 -122.016 1/23/2008 20.349 CTD
13089215 36.705 -122.117 1/23/2008 20.619 XBT
13088902 36.705 -122.053 1/23/2008 22.250 CTD
13088903 36.705 -122.053 1/23/2008 22.250 CTD
13088904 36.635 -122.074 1/23/2008 23.801 CTD
13088905 36.635 -122.074 1/23/2008 23.801 CTD
13089220 36.572 -122.043 1/24/2008 0.028 XBT
13089221 36.446 -122.070 1/24/2008 1.974 XBT
13088906 36.644 -122.120 1/24/2008 2.791 CTD
13088907 36.644 -122.120 1/24/2008 2.791 CTD
13089233 36.365 -122.228 1/24/2008 3.871 XBT
13088908 36.697 -122.114 1/24/2008 4.463 CTD
13088909 36.697 -122.114 1/24/2008 4.463 CTD
13089222 36.285 -122.404 1/24/2008 6.421 XBT
13088910 36.569 -122.045 1/24/2008 7.906 CTD
13088911 36.569 -122.045 1/24/2008 7.906 CTD
13088912 36.447 -122.072 1/24/2008 9.889 CTD
13088913 36.447 -122.072 1/24/2008 9.889 CTD
13088914 36.366 -122.229 1/24/2008 11.773 CTD
13088915 36.366 -122.229 1/24/2008 11.773 CTD
13089223 36.389 -122.486 1/24/2008 13.786 XBT
13088916 36.289 -122.408 1/24/2008 14.149 CTD
13088917 36.289 -122.408 1/24/2008 14.149 CTD
13089224 36.473 -122.314 1/24/2008 16.224 XBT
13089225 36.734 -122.008 1/24/2008 21.347 XBT
13088918 36.390 -122.488 1/24/2008 21.694 CTD
13088919 36.390 -122.488 1/24/2008 21.694 CTD
13088920 36.474 -122.314 1/25/2008 0.144 CTD
13088921 36.474 -122.314 1/25/2008 0.144 CTD
13088922 36.733 -122.008 1/25/2008 5.239 CTD
13088923 36.733 -122.008 1/25/2008 5.239 CTD
13089234 37.419 -123.232 1/28/2008 20.945 XBT
13089235 37.329 -123.414 1/28/2008 22.902 XBT
13089226 37.191 -123.315 1/29/2008 0.874 XBT
13089236 37.046 -123.204 1/29/2008 2.983 XBT
13088924 37.416 -123.228 1/29/2008 4.816 CTD
13088925 37.416 -123.228 1/29/2008 4.816 CTD
13089237 37.131 -123.009 1/29/2008 5.284 XBT
13088926 37.330 -123.412 1/29/2008 6.767 CTD
13088927 37.330 -123.412 1/29/2008 6.767 CTD
13089216 37.212 -122.823 1/29/2008 6.818 XBT
13088928 37.190 -123.312 1/29/2008 8.750 CTD
13088929 37.190 -123.312 1/29/2008 8.750 CTD
13089217 37.049 -122.724 1/29/2008 10.661 XBT
13088930 37.045 -123.203 1/29/2008 10.911 CTD
13088931 37.045 -123.203 1/29/2008 10.911 CTD
13088932 37.124 -123.018 1/29/2008 13.111 CTD
13088933 37.124 -123.018 1/29/2008 13.111 CTD
13088934 37.208 -122.830 1/29/2008 14.673 CTD
13088935 37.208 -122.830 1/29/2008 14.673 CTD
13089218 36.852 -122.314 1/29/2008 14.787 XBT
13089227 36.774 -122.506 1/29/2008 17.263 XBT
13088936 37.060 -122.733 1/29/2008 18.416 CTD
13088937 37.060 -122.733 1/29/2008 18.416 CTD
13089228 36.685 -122.716 1/29/2008 19.704 XBT
13089229 36.596 -122.888 1/29/2008 21.535 XBT
13088938 36.852 -122.316 1/29/2008 22.730 CTD
13088939 36.852 -122.316 1/29/2008 22.730 CTD
13089230 36.468 -122.789 1/29/2008 23.478 XBT
13088940 36.774 -122.507 1/30/2008 1.214 CTD
13088941 36.774 -122.507 1/30/2008 1.214 CTD
13089231 36.542 -122.618 1/30/2008 1.431 XBT
13088942 36.688 -122.705 1/30/2008 3.548 CTD
13088943 36.688 -122.705 1/30/2008 3.548 CTD
13088944 36.603 -122.893 1/30/2008 5.401 CTD
13088945 36.603 -122.893 1/30/2008 5.401 CTD
13089232 36.727 -122.255 1/30/2008 6.375 XBT
13088946 36.464 -122.790 1/30/2008 7.342 CTD
13088947 36.464 -122.790 1/30/2008 7.342 CTD
13088948 36.542 -122.616 1/30/2008 9.347 CTD
13088949 36.542 -122.616 1/30/2008 9.347 CTD
13088950 36.724 -122.253 1/30/2008 14.281 CTD
13088951 36.724 -122.253 1/30/2008 14.281 CTD